Change the Weather History Date:

Monday, October 24, 2011

  Actual Average Record
Temperature  
Mean Temperature 49 °F 47 °F  
Max Temperature 54 °F 56 °F 78 °F (1963)
Min Temperature 43 °F 37 °F 16 °F (1969)
Degree Days  
Heating Degree Days 16 18  
Month to date heating degree days 174 359  
Since 1 July heating degree days 174 605  
Cooling Degree Days 0 0  
Month to date cooling degree days 0 0  
Year to date cooling degree days 0 360  
Moisture  
Dew Point 43 °F    
Average Humidity 81    
Maximum Humidity 100    
Minimum Humidity 61    
Precipitation  
Precipitation 0.02 in 0.09 in 0.83 in (1971)
Month to date precipitation 1.68 2.40  
Sea Level Pressure  
Sea Level Pressure 30.01 in    
Wind  
Wind Speed 8 mph (SW)    
Max Wind Speed 20 mph    
Max Gust Speed 25 mph    
Visibility 9 miles    
Events Rain    
T = Trace of Precipitation, MM = Missing Value Source: NWS Daily Summary

Daily Weather History Graph

Daily Weather History Graph

Search for Another Location

Airport or City:

Trip Planner

Search our weather history database for the weather conditions in past years. The results will help you decide how hot, cold, wet, or windy it might be!

Date:

Astronomy

Oct. 24, 2011 Rise Set
Actual Time 7:37 AM EDT 6:21 PM EDT
Civil Twilight 7:08 AM EDT 6:50 PM EDT
Nautical Twilight 6:36 AM EDT 7:22 PM EDT
Astronomical Twilight 6:04 AM EDT 7:54 PM EDT
Moon 4:52 AM EDT (10/24) 4:46 PM EDT (10/24)
Length of Visible Light 11h 41m
Length of Day
10h 44m
Waning Crescent, 7% of the Moon is Illuminated
Oct 24
Waning Crescent
Oct 26
New
Nov 2
First Quarter
Nov 10
Full
Nov 18
Last Quarter

Hourly Weather History & Observations

Time (EDT) Temp. Windchill Dew Point Humidity Pressure Visibility Wind Dir Wind Speed Gust Speed Precip Events Conditions
12:56 AM 48.2 °F - 35.6 °F 62% 30.05 in 10.0 mi Calm Calm - N/A   Overcast
1:56 AM 48.9 °F - 36.0 °F 61% 30.05 in 10.0 mi South 4.6 mph - N/A   Overcast
2:56 AM 48.0 °F - 36.0 °F 63% 30.04 in 10.0 mi Calm Calm - N/A   Mostly Cloudy
3:56 AM 46.9 °F - 35.1 °F 63% 30.02 in 10.0 mi South 3.5 mph - N/A   Clear
4:56 AM 46.9 °F - 36.0 °F 66% 30.01 in 10.0 mi South 3.5 mph - N/A   Mostly Cloudy
5:56 AM 48.0 °F - 36.0 °F 63% 30.01 in 10.0 mi South 3.5 mph - N/A   Mostly Cloudy
6:56 AM 48.0 °F - 36.0 °F 63% 29.99 in 10.0 mi South 5.8 mph - N/A   Scattered Clouds
7:56 AM 48.2 °F - 37.4 °F 66% 29.98 in 10.0 mi South 5.8 mph - N/A   Overcast
8:56 AM 50.0 °F - 37.9 °F 63% 29.99 in 10.0 mi SSW 6.9 mph - N/A   Scattered Clouds
10:56 AM 53.1 °F - 41.0 °F 64% 30.00 in 10.0 mi SW 15.0 mph - N/A   Mostly Cloudy
11:56 AM 51.1 °F - 42.1 °F 71% 30.00 in 10.0 mi WSW 10.4 mph 23.0 mph 0.00 in   Overcast
12:12 PM 51.8 °F - 42.8 °F 71% 29.99 in 10.0 mi WSW 9.2 mph - N/A   Overcast
12:56 PM 51.1 °F - 44.1 °F 77% 29.99 in 10.0 mi SW 5.8 mph - N/A   Overcast
1:56 PM 52.0 °F - 45.0 °F 77% 29.97 in 10.0 mi SW 13.8 mph - 0.01 in   Overcast
2:34 PM 53.6 °F - 44.6 °F 72% 29.96 in 10.0 mi WSW 12.7 mph 21.9 mph N/A   Mostly Cloudy
2:56 PM 52.0 °F - 44.1 °F 74% 29.97 in 10.0 mi WSW 11.5 mph 21.9 mph N/A   Overcast
3:40 PM 51.8 °F - 46.4 °F 82% 29.96 in 10.0 mi SW 10.4 mph - 0.01 in Rain Light Rain
3:56 PM 51.8 °F - 48.2 °F 88% 29.96 in 10.0 mi SW 6.9 mph - N/A Rain Light Rain
4:17 PM 51.8 °F - 46.4 °F 82% 29.97 in 10.0 mi WSW 9.2 mph - N/A   Overcast
4:56 PM 51.1 °F - 46.9 °F 86% 29.99 in 10.0 mi SW 8.1 mph - N/A   Overcast
5:26 PM 50.0 °F - 46.4 °F 87% 29.98 in 10.0 mi SW 8.1 mph - N/A   Overcast
5:56 PM 50.0 °F - 46.9 °F 89% 30.00 in 10.0 mi WSW 9.2 mph - N/A   Overcast
6:56 PM 48.9 °F - 46.9 °F 93% 30.02 in 10.0 mi WSW 8.1 mph - N/A   Overcast
7:02 PM 48.2 °F - 46.4 °F 93% 30.01 in 10.0 mi West 8.1 mph - N/A   Overcast
7:13 PM 48.2 °F - 46.4 °F 93% 30.01 in 10.0 mi WSW 6.9 mph - N/A   Overcast
7:45 PM 48.2 °F - 46.4 °F 93% 30.02 in 8.0 mi West 6.9 mph - N/A   Mostly Cloudy
7:56 PM 46.9 °F - 46.0 °F 97% 30.04 in 6.0 mi WSW 6.9 mph - N/A   Mostly Cloudy
8:13 PM 46.4 °F 41.5 °F 46.4 °F 100% 30.03 in 5.0 mi WSW 10.4 mph - N/A   Mostly Cloudy
8:45 PM 46.4 °F 41.9 °F 46.4 °F 100% 30.04 in 6.0 mi West 9.2 mph - N/A   Mostly Cloudy
8:56 PM 46.9 °F - 46.0 °F 97% 30.06 in 6.0 mi West 10.4 mph - N/A   Scattered Clouds
9:56 PM 45.0 °F 41.2 °F 44.1 °F 97% 30.08 in 7.0 mi WSW 6.9 mph - N/A   Clear
10:56 PM 43.0 °F 38.8 °F 42.1 °F 97% 30.09 in 2.5 mi WSW 6.9 mph - N/A   Scattered Clouds
11:04 PM 42.8 °F 38.0 °F 42.8 °F 100% 30.07 in 5.0 mi WSW 8.1 mph - N/A   Scattered Clouds
11:56 PM 43.0 °F 37.7 °F 41.0 °F 93% 30.08 in 9.0 mi WSW 9.2 mph - N/A   Partly Cloudy